JCSAT-16 (41729 NORAD) Tracking and Keplerian Element Data

This shows tracking and keplerian element data for the satellite.

Feedback or suggestion? Click here.




ElementValue
Catalog41729
NameJCSAT-16
Epoch Orbit833
Epoch Day323.43763733
Epoch Year2018
RAAN75.0521
Inclination0.0219
Eccentricity8.39E-05
Argument of Perigee312.0894
Mean Anonmoly332.8629
Mean Motion1.00270254
Decay Rate-2.4E-06
L11 41729U 16050A 18323.43763733 -.00000240 00000-0 00000+0 0 9994
L22 41729 0.0219 75.0521 0000839 312.0894 332.8629 1.00270254 8332

Live tracking and technical data element details for JCSAT-16 (NORAD 41729). JCSAT-16 can be tracked NOW for your location showing map with azimuth and elevation plus other details from your city location.

Track the satellite on the map from your city or location and see movement details for azimuth, elevation, latitude, longitude, range, height, and movement on the map or in text.







IsCatalogInMostPopularTable: catalog: 41729, numindb: 106
Update: records affected: 1



GetName: 41729 JCSAT-16

Hit Count: updated at: Wed, 21 Nov 2018 05:25:33 GMT